[[{"header":{"parameterUnit":"m.s-1","parameterCategory":1,"la1":30.2991,"la2":30.254,"lo1":-89.0895,"lo2":-89.0444,"dy":0.0017,"dx":0.0017,"nx":28,"ny":28,"refTime":"2025-08-04T03:00:00:Z","depth":0,"parameterNumber":2,"parameterNumberName":"U-component_of_WINDS"},"data":[0,0,0,0,0,0,0,0,0,0,0,0,0,0,0,0,0,0,0,0,0,0,0,0,0,0,0,0,0,0,0,0,0,0,0,0,0,0,0,0,0,0,0,0,0,0,0,0,0,0,0,0,0,0,0,0,0,0,-2.6441,-2.644,0,-2.6367,-2.6366,-2.6365,-2.6263,-2.6262,-2.626,-2.6258,-2.6182,-2.6181,-2.6181,0,0,0,0,0,0,0,0,0,0,0,0,0,-2.6496,-2.6496,-2.6441,-2.644,-2.6439,-2.6367,-2.6366,-2.6365,-2.6264,-2.6262,-2.6259,-2.6258,-2.6182,-2.6181,-2.6181,0,0,0,0,0,0,0,0,0,0,0,0,0,-2.6452,-2.6495,-2.6441,-2.638,-2.6374,-2.6367,-2.6366,-2.6364,-2.6264,-2.6261,-2.6259,-2.6257,-2.6182,-2.6181,-2.6181,-2.6228,0,0,-2.6179,-2.6178,0,0,0,0,0,0,0,0,-2.6455,-2.645,-2.639,-2.6384,-2.6377,-2.6322,-2.6357,-2.6319,-2.6265,-2.6306,-2.6258,-2.6255,-2.623,-2.6226,-2.6217,-2.6224,-2.6221,-2.6179,-2.6178,-2.6178,-2.6178,0,0,0,0,0,0,0,-2.6458,-2.6453,-2.6412,-2.6389,-2.6382,-2.6356,-2.6347,-2.6349,-2.6283,-2.6302,-2.6294,-2.6287,-2.6226,-2.6218,-2.6215,-2.622,-2.6179,-2.6178,-2.6178,-2.6177,-2.6259,-2.6262,0,0,0,0,0,0,-2.647,-2.6456,-2.6414,-2.6409,-2.641,-2.6357,-2.6347,-2.6342,-2.6283,-2.6272,-2.6289,-2.6283,-2.622,-2.6216,-2.6212,-2.6261,-2.6178,-2.6177,-2.6177,-2.6257,-2.626,-2.6263,0,0,0,0,0,0,-2.6472,-2.6467,-2.6417,-2.6431,-2.6422,-2.6359,-2.6354,-2.6342,-2.6333,-2.6273,-2.6261,-2.6293,-2.6218,-2.6212,-2.6224,-2.6257,-2.6177,-2.6176,-2.6254,-2.6258,-2.6261,-2.6361,0,0,0,0,0,0,-2.6474,-2.6468,-2.6486,-2.6432,-2.6422,-2.6431,-2.6356,-2.6342,-2.6333,-2.6323,-2.6273,-2.6263,-2.6216,-2.6226,-2.6223,-2.6254,-2.6176,-2.6251,-2.6256,-2.626,-2.6354,-2.6367,-2.6379,0,0,0,0,0,-2.6476,-2.6517,-2.6487,-2.6482,-2.6442,-2.6433,-2.6427,-2.6373,-2.6336,-2.6352,-2.6313,-2.6264,-2.6254,-2.6228,-2.6224,-2.6255,-2.6248,-2.6254,-2.626,-2.6349,-2.6365,-2.6379,0,0,0,0,0,0,-2.6576,-2.6509,-2.6475,-2.6499,-2.6473,-2.6416,-2.6435,-2.6392,-2.6375,-2.6367,-2.63,-2.6289,-2.6309,-2.6284,-2.6255,-2.6297,-2.6244,-2.6249,-2.6312,-2.6327,-2.6339,-2.6344,-2.6175,0,0,0,0,0,-2.6601,-2.66,-2.6541,-2.6568,-2.6557,-2.6499,-2.6493,-2.6453,-2.6422,-2.6411,-2.6373,-2.6345,-2.6335,-2.633,-2.6318,-2.6351,-2.6338,-2.6371,-2.6383,-2.6394,-2.6398,-2.6412,-2.6425,-2.6282,-2.6282,-2.6282,0,0,-2.6653,-2.6616,-2.6619,-2.6588,-2.6562,-2.6561,-2.649,-2.6493,-2.6491,-2.6411,-2.6419,-2.6391,-2.6355,-2.6377,-2.6385,-2.6356,-2.6435,-2.6401,-2.641,-2.6409,-2.6419,-2.6433,-2.6445,-2.6286,-2.6285,-2.6285,0,0,-2.6745,-2.6718,-2.6737,-2.6713,-2.6676,-2.6637,-2.6642,-2.6592,-2.657,-2.6577,-2.6516,-2.6514,-2.6499,-2.6476,-2.6462,-2.6547,-2.65,-2.6545,-2.6609,-2.6623,-2.6634,-2.6644,-2.6672,-2.6683,-2.6551,-2.6551,-2.6551,0,-2.6814,-2.6811,-2.6753,-2.6759,-2.6746,-2.6674,-2.6692,-2.6672,-2.6633,-2.6626,-2.6595,-2.6574,-2.6546,-2.656,-2.6581,-2.6573,-2.6575,-2.6549,-2.6637,-2.6646,-2.6654,-2.668,-2.6691,-2.6556,-2.6556,-2.6555,-2.6555,0,-2.6896,-2.6895,-2.6915,-2.6878,-2.6868,-2.6881,-2.6824,-2.6821,-2.6783,-2.6747,-2.6755,-2.6718,-2.6696,-2.6698,-2.666,-2.6707,-2.669,-2.665,-2.6594,-2.6674,-2.6698,-2.6707,-2.6564,-2.6562,-2.6561,-2.6559,0,0,-2.7048,-2.6979,-2.6987,-2.6969,-2.6923,-2.6921,-2.693,-2.6909,-2.6907,-2.6883,-2.6888,-2.6877,-2.6839,-2.6824,-2.6783,-2.6796,-2.6863,-2.6753,-2.6751,-2.6773,-2.691,-2.6939,-2.6951,-2.6833,-2.6835,-2.6836,-2.6912,0,-2.713,-2.7141,-2.7089,-2.7114,-2.7111,-2.7043,-2.7051,-2.7023,-2.6991,-2.6984,-2.6948,-2.694,-2.6892,-2.6881,-2.6891,-2.6853,-2.6889,-2.6847,-2.6835,-2.6836,-2.6844,-2.6964,-2.6995,-2.7068,-2.6921,-2.6922,-2.6923,0,-2.7226,-2.7207,-2.7231,-2.7183,-2.718,-2.7188,-2.7164,-2.7159,-2.7126,-2.7101,-2.7084,-2.7038,-2.7043,-2.6992,-2.6997,-2.6969,-2.6962,-2.6943,-2.6944,-2.6939,-2.6883,-2.6959,-2.709,-2.71,-2.6938,-2.6937,-2.6936,0,-2.7332,-2.7312,-2.7324,-2.7311,-2.7256,-2.7262,-2.724,-2.7204,-2.7195,-2.7174,-2.7167,-2.7148,-2.7137,-2.7123,-2.7072,-2.704,-2.7082,-2.7028,-2.706,-2.7062,-2.707,-2.707,-2.7199,-2.707,-2.707,-2.707,-2.707,0,-2.7427,-2.7444,-2.737,-2.7377,-2.7394,-2.7335,-2.7353,-2.7324,-2.7293,-2.7292,-2.7234,-2.7234,-2.7168,-2.7162,-2.7122,-2.7131,-2.7128,-2.7107,-2.7095,-2.711,-2.7113,-2.7103,-2.7095,-2.7073,-2.7072,-2.7071,-2.7071,0,-2.7547,-2.7498,-2.7506,-2.7453,-2.744,-2.7455,-2.7409,-2.7413,-2.7377,-2.7378,-2.7374,-2.7318,-2.7307,-2.7255,-2.7233,-2.7206,-2.7228,-2.7208,-2.7239,-2.7231,-2.7266,-2.7262,-2.739,-2.7403,-2.7269,-2.7271,-2.7272,0,-2.7609,-2.7621,-2.7569,-2.7565,-2.7545,-2.7539,-2.7528,-2.7471,-2.7463,-2.7427,-2.7435,-2.7419,-2.7403,-2.7389,-2.7346,-2.7327,-2.7305,-2.7351,-2.7301,-2.7316,-2.7302,-2.7301,-2.7301,-2.7361,-2.7363,-2.7364,-2.7365,0,-2.7725,-2.7701,-2.7688,-2.7668,-2.7658,-2.7639,-2.7616,-2.7616,-2.7552,-2.7546,-2.7534,-2.7522,-2.7499,-2.7483,-2.7458,-2.7434,-2.7389,-2.7382,-2.7388,-2.7402,-2.7418,-2.7407,-2.7265,-2.7378,-2.7377,-2.7376,-2.7375,-2.7375,-2.7816,-2.7823,-2.7787,-2.7775,-2.7753,-2.7733,-2.7734,-2.7698,-2.7687,-2.7664,-2.7631,-2.7623,-2.759,-2.7551,-2.7531,-2.7523,-2.7497,-2.7507,-2.7509,-2.7512,-2.7518,-2.7422,-2.7519,-2.7518,-2.7518,-2.7517,-2.7517,0,-2.7927,-2.7901,-2.7891,-2.7861,-2.7852,-2.7811,-2.7785,-2.7779,-2.7773,-2.7746,-2.7732,-2.7717,-2.7702,-2.7659,-2.7639,-2.7641,-2.762,-2.7638,-2.7635,-2.763,-2.7543,-2.7539,-2.7655,-2.7655,-2.7655,-2.7655,-2.7655,-2.7655,-2.7983,-2.7991,-2.7962,-2.7959,-2.7932,-2.7924,-2.7912,-2.7894,-2.7871,-2.7858,-2.7846,-2.7817,-2.7783,-2.776,-2.7744,-2.7732,-2.7726,-2.7751,-2.7731,-2.765,-2.7637,-2.7624,-2.7619,-2.7751,-2.7751,-2.7818,-2.7819,-2.7819]},{"header":{"parameterUnit":"m.s-1","parameterCategory":1,"la1":30.2991,"la2":30.254,"lo1":-89.0895,"lo2":-89.0444,"dy":0.0017,"dx":0.0017,"nx":28,"ny":28,"refTime":"2025-08-04T03:00:00:Z","depth":0,"parameterNumber":3,"parameterNumberName":"V-component_of_WINDS"},"data":[0,0,0,0,0,0,0,0,0,0,0,0,0,0,0,0,0,0,0,0,0,0,0,0,0,0,0,0,0,0,0,0,0,0,0,0,0,0,0,0,0,0,0,0,0,0,0,0,0,0,0,0,0,0,0,0,0,0,-1.1285,-1.1285,0,-1.1282,-1.1282,-1.1282,-1.1303,-1.1303,-1.1304,-1.1305,-1.1298,-1.1297,-1.1296,0,0,0,0,0,0,0,0,0,0,0,0,0,-1.1302,-1.1302,-1.1285,-1.1285,-1.1285,-1.1282,-1.1282,-1.1282,-1.1303,-1.1304,-1.1304,-1.1305,-1.1298,-1.1297,-1.1296,0,0,0,0,0,0,0,0,0,0,0,0,0,-1.1297,-1.1302,-1.1285,-1.1295,-1.1296,-1.1282,-1.1282,-1.1282,-1.1303,-1.1304,-1.1304,-1.1305,-1.1298,-1.1297,-1.1296,-1.1272,0,0,-1.1293,-1.1292,0,0,0,0,0,0,0,0,-1.1297,-1.1296,-1.1294,-1.1294,-1.1295,-1.1294,-1.1286,-1.1279,-1.1302,-1.13,-1.1305,-1.1306,-1.1296,-1.1295,-1.1292,-1.1272,-1.1271,-1.1293,-1.1292,-1.1292,-1.1291,0,0,0,0,0,0,0,-1.1297,-1.1296,-1.1284,-1.1293,-1.1294,-1.1298,-1.1298,-1.1285,-1.1293,-1.13,-1.1302,-1.1301,-1.1296,-1.1293,-1.1292,-1.1271,-1.1293,-1.1292,-1.1291,-1.1291,-1.1226,-1.1225,0,0,0,0,0,0,-1.1297,-1.1296,-1.1284,-1.1284,-1.1298,-1.1297,-1.1297,-1.1293,-1.1293,-1.1294,-1.1301,-1.1302,-1.1295,-1.1293,-1.1292,-1.1261,-1.1292,-1.1291,-1.129,-1.1227,-1.1226,-1.1225,0,0,0,0,0,0,-1.1297,-1.1296,-1.1284,-1.129,-1.1289,-1.1296,-1.1291,-1.1293,-1.129,-1.1293,-1.1294,-1.1296,-1.1295,-1.1294,-1.1276,-1.1261,-1.129,-1.1289,-1.1228,-1.1227,-1.1225,-1.12,0,0,0,0,0,0,-1.1298,-1.1296,-1.1288,-1.129,-1.1289,-1.127,-1.1291,-1.1292,-1.1289,-1.1291,-1.129,-1.129,-1.1296,-1.1278,-1.1275,-1.126,-1.1288,-1.123,-1.1228,-1.1226,-1.1202,-1.1197,-1.1194,0,0,0,0,0,-1.1298,-1.1281,-1.1288,-1.1286,-1.128,-1.1269,-1.1268,-1.1276,-1.1287,-1.1278,-1.128,-1.129,-1.1263,-1.1276,-1.1273,-1.1257,-1.1231,-1.1228,-1.1226,-1.1204,-1.1198,-1.1194,0,0,0,0,0,0,-1.1276,-1.1281,-1.1289,-1.1272,-1.127,-1.1273,-1.1262,-1.1271,-1.1264,-1.1267,-1.1275,-1.1275,-1.1255,-1.1255,-1.1268,-1.1232,-1.1249,-1.1246,-1.1233,-1.1227,-1.1223,-1.1223,-1.1287,0,0,0,0,0,-1.1269,-1.1262,-1.1266,-1.1251,-1.125,-1.1256,-1.1252,-1.1258,-1.1255,-1.1254,-1.1255,-1.1251,-1.1241,-1.1235,-1.1226,-1.1202,-1.12,-1.119,-1.1185,-1.1182,-1.1179,-1.1162,-1.1157,-1.1217,-1.1217,-1.1217,0,0,-1.1255,-1.1257,-1.1252,-1.1246,-1.1246,-1.1235,-1.1255,-1.1244,-1.1236,-1.1252,-1.1235,-1.1235,-1.1231,-1.121,-1.12,-1.1209,-1.1162,-1.1179,-1.1176,-1.1175,-1.1159,-1.1153,-1.1148,-1.1215,-1.1216,-1.1216,0,0,-1.1223,-1.1226,-1.1211,-1.121,-1.1209,-1.1212,-1.1209,-1.121,-1.121,-1.1194,-1.1205,-1.1194,-1.1179,-1.1174,-1.117,-1.1133,-1.1141,-1.113,-1.1108,-1.1092,-1.1087,-1.1083,-1.1067,-1.1061,-1.1127,-1.1127,-1.1127,0,-1.1205,-1.1192,-1.1203,-1.1191,-1.1186,-1.1201,-1.1185,-1.1183,-1.1178,-1.1174,-1.1184,-1.1162,-1.1161,-1.1137,-1.1127,-1.1125,-1.1118,-1.113,-1.1087,-1.1083,-1.1079,-1.1064,-1.1058,-1.1126,-1.1126,-1.1126,-1.1126,0,-1.1169,-1.1159,-1.1148,-1.1143,-1.1138,-1.1124,-1.113,-1.1123,-1.1129,-1.1131,-1.1112,-1.111,-1.11,-1.1095,-1.1101,-1.107,-1.1075,-1.1086,-1.1103,-1.1072,-1.1057,-1.1052,-1.1124,-1.1124,-1.1125,-1.1125,0,0,-1.1123,-1.1124,-1.1119,-1.1116,-1.1114,-1.1106,-1.1091,-1.1082,-1.1075,-1.107,-1.1056,-1.1041,-1.105,-1.1045,-1.105,-1.1036,-1.1003,-1.1048,-1.1048,-1.1038,-1.0966,-1.0956,-1.0949,-1.1009,-1.1008,-1.1008,-1.0965,0,-1.1091,-1.1067,-1.1075,-1.105,-1.1039,-1.1052,-1.1039,-1.1035,-1.1036,-1.1025,-1.1025,-1.1013,-1.1028,-1.1024,-1.1012,-1.101,-1.0989,-1.1014,-1.0993,-1.0992,-1.0992,-1.0942,-1.0933,-1.0893,-1.096,-1.0959,-1.0958,0,-1.105,-1.1044,-1.1018,-1.1015,-1.1011,-1.0999,-1.099,-1.0981,-1.0975,-1.0976,-1.0969,-1.0976,-1.0959,-1.0977,-1.0951,-1.0967,-1.0959,-1.0957,-1.0955,-1.0952,-1.0972,-1.0935,-1.0881,-1.0873,-1.095,-1.0951,-1.0951,0,-1.1016,-1.1001,-1.0983,-1.098,-1.0978,-1.0968,-1.0967,-1.0962,-1.0955,-1.0946,-1.0941,-1.093,-1.0923,-1.0913,-1.0916,-1.0929,-1.0887,-1.0907,-1.0885,-1.0885,-1.0875,-1.0875,-1.0815,-1.0873,-1.0873,-1.0873,-1.0874,0,-1.0977,-1.096,-1.0967,-1.0956,-1.0936,-1.0944,-1.0923,-1.0923,-1.0918,-1.0905,-1.0915,-1.0902,-1.0907,-1.0893,-1.0895,-1.0871,-1.0868,-1.0866,-1.0867,-1.0864,-1.0864,-1.0858,-1.0859,-1.0872,-1.0872,-1.0873,-1.0873,0,-1.0935,-1.094,-1.0921,-1.092,-1.0919,-1.0904,-1.0902,-1.0889,-1.0891,-1.0873,-1.0869,-1.087,-1.0854,-1.0856,-1.0838,-1.0839,-1.0808,-1.0813,-1.081,-1.081,-1.0787,-1.0788,-1.072,-1.071,-1.0776,-1.0776,-1.0775,0,-1.0909,-1.0897,-1.0894,-1.0886,-1.0884,-1.0871,-1.0864,-1.087,-1.0862,-1.0853,-1.0841,-1.0826,-1.0814,-1.0787,-1.0784,-1.077,-1.0772,-1.0749,-1.077,-1.0767,-1.0768,-1.0768,-1.0765,-1.0744,-1.0744,-1.0743,-1.0743,0,-1.0862,-1.0864,-1.0855,-1.0844,-1.0836,-1.0828,-1.0821,-1.0813,-1.0818,-1.0808,-1.0792,-1.0783,-1.0763,-1.0747,-1.0732,-1.0728,-1.0734,-1.0736,-1.073,-1.0726,-1.0724,-1.0722,-1.0796,-1.0737,-1.0738,-1.0738,-1.0739,-1.0739,-1.0825,-1.0813,-1.0809,-1.0796,-1.0792,-1.0784,-1.0772,-1.0771,-1.0759,-1.0744,-1.0748,-1.0729,-1.072,-1.0702,-1.0695,-1.0678,-1.0686,-1.0678,-1.0675,-1.0673,-1.0668,-1.0728,-1.0676,-1.0676,-1.0676,-1.0676,-1.0676,0,-1.0776,-1.0773,-1.0762,-1.0752,-1.0741,-1.075,-1.0742,-1.0732,-1.0715,-1.0707,-1.0695,-1.0675,-1.0658,-1.0654,-1.0637,-1.0624,-1.0626,-1.0619,-1.0619,-1.0616,-1.0664,-1.067,-1.0617,-1.0617,-1.0617,-1.0617,-1.0617,-1.0617,-1.0749,-1.0728,-1.0729,-1.0705,-1.0702,-1.0684,-1.0678,-1.067,-1.0663,-1.0641,-1.0627,-1.0625,-1.0617,-1.0599,-1.0583,-1.0582,-1.0574,-1.0564,-1.0564,-1.0608,-1.0614,-1.0619,-1.0625,-1.0563,-1.0563,-1.0518,-1.0517,-1.0517]}]]